O3B FM4 (39189 NORAD) Tracking and Keplerian Element Data

This shows tracking and keplerian element data for the satellite.

Feedback or suggestion? Click here.




ElementValue
Catalog39189
NameO3B FM4
Epoch Orbit9249
Epoch Day198.78896075
Epoch Year2018
RAAN20.0318
Inclination0.0499
Eccentricity0.0002563
Argument of Perigee95.9559
Mean Anonmoly244.0351
Mean Motion5.00115723
Decay Rate-2.7E-07
L11 39189U 13031B 18198.78896075 -.00000027 00000-0 00000-0 0 9995
L22 39189 0.0499 20.0318 0002563 95.9559 244.0351 5.00115723 92493

Live tracking and technical data element details for O3B FM4 (NORAD 39189). O3B FM4 can be tracked NOW for your location showing map with azimuth and elevation plus other details from your city location.

Track the satellite on the map from your city or location and see movement details for azimuth, elevation, latitude, longitude, range, height, and movement on the map or in text.







IsCatalogInMostPopularTable: catalog: 39189, numindb: 66
Update: records affected: 1



GetName: 39189 O3B FM4

Hit Count: updated at: Fri, 20 Jul 2018 02:43:43 GMT